Regional Weather Roundup
Issued by NWS

Home | Current Version | Previous Version | Graphics & Text | Print | Product List | Glossary On
Versions: 1 2 3 4 5 6 7 8 9 10 11 12 13 14 15 16 17 18 19 20 21 22 23 24 25 26 27 28 29 30 31 32 33 34 35 36 37 38 39 40 41 42 43 44 45 46 47 48 49 50
000
ASUS43 KLMK 201502
RWRKY
KENTUCKY REGIONAL WEATHER ROUNDUP
NATIONAL WEATHER SERVICE LOUISVILLE KY
1000 AM EST SAT JAN 20 2018

NOTE "FAIR" INDICATES FEW OR NO CLOUDS BELOW 12,000 FEET
WITH NO SIGNIFICANT WEATHER AND/OR OBSTRUCTIONS TO VISIBILITY.

KYZ001>023-026-027-061>063-070>075-201600-
WESTERN AND SOUTH CENTRAL KENTUCKY

CITY           SKY/WX    TMP DP  RH WIND       PRES   REMARKS
PADUCAH        CLOUDY    42  30  62 SW12G18   30.15S
HENDERSON      FAIR      42  24  49 SW13      30.14R
OWENSBORO      FAIR      39  25  57 S7        30.16R WCI  34
HOPKINSVILLE   CLOUDY    45  23  42 S8        30.19S
BOWLING GREEN  CLOUDY    44  28  53 S12       30.21R
GLASGOW        NOT AVBL
$$

KYZ024-025-028>034-038-045-046-053-201600-
NORTH CENTRAL KENTUCKY

CITY           SKY/WX    TMP DP  RH WIND       PRES   REMARKS
LOUISVILLE/SDF PTSUNNY   44  22  41 S10       30.15R
LOUISVILLE/LOU FAIR      42  23  46 S9        30.16R
FORT KNOX      MOSUNNY   42  24  47 SW9       30.17R
$$

KYZ035>037-039>044-047>052-055>060-089>105-201600-
NORTHEAST KENTUCKY

CITY           SKY/WX    TMP DP  RH WIND       PRES   REMARKS
LEXINGTON      FAIR      42  28  57 SW13      30.16R
COVINGTON      PTSUNNY   39  24  55 SW15G22   30.10R WCI  31
FRANKFORT      FAIR      43  23  45 SW13      30.14R
$$

KYZ054-064>069-076>088-106>120-201600-
SOUTHEAST KENTUCKY

CITY           SKY/WX    TMP DP  RH WIND       PRES   REMARKS
JACKSON        CLOUDY    47  32  56 VRB7      30.18R
LONDON         CLOUDY    47  32  56 SW10      30.22R
SOMERSET       NOT AVBL
MIDDLESBORO    CLOUDY    37  28  70 CALM      30.27R
MONTICELLO     CLOUDY    49  32  52 SW17G25   30.24R
$$




USA.gov is the U.S. government's official web portal to all federal, state and local government web resources and services.